www.pogodaiklimat.ru

Погода и климат >> Архив погоды >> Малайзия >> Kuala Lumpur Int Airport


ПОГОДА в Kuala Lumpur Int Airport

  • Прогноз погоды в Kuala Lumpur Int Airport
  • Монитор погоды в Kuala Lumpur Int Airport
  • Климат города

АРХИВ ПОГОДЫ в Kuala Lumpur Int Airport

Время (UTC), дата Ветер
(напр.,м/с)
 
Видим.   Явления Облачность Т
(С)
Тd
(С)
f
(%)
Тe
(С)
Тes
(С)
Комфортность P
(гПа)
Po
(гПа)
Тmin
(С)
Tmax
(С)
R
(мм)
R24
(мм)
S
(см)
03 11.10 СЗ 2 9000 м мгла 9/3 500 м
[Cb cap Ac lent Ci sp]
+28.8 +25.3 81 +42 +48 опасность
перегрева
1011.9 1010.0
06 11.10 СЗ 3 10 км мгла 9/4 500 м
[Cb cap Ac lent Ci sp]
+31.5 +24.9 68 +45 +51 опасность
перегрева
1009.4 1007.5
09 11.10 З 3 7000 м гроза, ливневой дождь 9/4 300 м
[Cb cap Ac lent Cs]
+28.4 +25.6 85 +42 +44 опасность
перегрева
1007.7 1005.8
12 11.10 штиль 0 10 км зарница {гроза, ливн. осадки} 9/3 500 м
[Cb cap Ac lent Ci sp]
+25.8 +24.9 95 +37 +37 очень
душно
1009.9 1008.0 +32.6 13
15 11.10 штиль 0 5000 м гроза, ливневой дождь 9/5 240 м
[Cb cap Ac lent Cs]
+24.7 +23.9 95 +34 +34 очень
душно
1012.3 1010.4
18 11.10 Ю 1 3000 м слабый ливневой дождь, в посл. час гроза 9/5 240 м
[Cb cap Ac lent Cs]
+24.4 +24.0 98 +34 +34 очень
душно
1012.1 1010.2 17
21 11.10 штиль 0 9000 м слабый дождь 9/5 300 м
[Cb cap Ac lent Cs]
+24.7 +24.2 97 +34 +34 очень
душно
1010.8 1008.9
00 12.10 штиль 0 10 км дымка {дождь} 9/4 500 м
[Cb cap Ac lent Ci sp]
+24.3 +23.9 98 +33 +34 очень
душно
1012.8 1010.9 +23.4 47
03 12.10 СЗ 2 10 км в посл. час дождь 9/3 900 м
[Sc Ac As Cs]
+26.3 +24.5 90 +37 +43 очень
душно
1014.5 1012.6
06 12.10 З 2 10 км мгла {дождь} 9/4 540 м
[Cu med, cong Ac lent Ci sp]
+29.0 +24.6 77 +41 +48 опасность
перегрева
1011.4 1009.5 0.0
09 12.10 ЮЗ 2 8000 м гроза, ливневой дождь 9/5 500 м
[Cb cap Ac lent Cs]
+27.1 +25.0 88 +39 +41 очень
душно
1009.9 1008.0
12 12.10 С 2 10 км мгла {гроза, дождь} 9/3 900 м
[Sc Ac lent Ci sp]
+25.2 +24.0 93 +35 +35 очень
душно
1011.7 1009.8 +29.3 1
15 12.10 С 2 9000 м слабый дождь 9/4 300 м
[Cb cap Ac lent Cs]
+25.7 +24.8 95 +36 +36 очень
душно
1013.6 1011.7
18 12.10 С 1 8000 м зарница 9/3 300 м
[Cb cap Ac lent Ci sp]
+25.3 +24.7 96 +36 +36 очень
душно
1012.6 1010.7 0.0
21 12.10 СЗ 1 8000 м слабый дождь 9/4 300 м
[Cb cap Ac lent Cs]
+24.8 +24.0 95 +34 +34 очень
душно
1011.1 1009.2
00 13.10 С 1 8000 м слабый дождь 9/4 300 м
[Cb cap Ac lent Cs]
+25.0 +24.1 95 +34 +35 очень
душно
1012.7 1010.8 +24.3 2
03 13.10 СЗ 3 10 км мгла {дождь} 9/1 540 м
[Cu med, cong Ac lent Ci sp]
+27.7 +24.3 82 +39 +46 очень
душно
1013.7 1011.8
06 13.10 З 3 10 км мгла {дождь} 9/4 540 м
[Cu med, cong Ac lent Ci sp]
+30.6 +23.9 67 +42 +48 опасность
перегрева
1011.2 1009.3 0.0
09 13.10 З 2 10 км осадки на расстоянии 9/4 500 м
[Cb cap Ac lent Ci sp]
+30.7 +24.9 71 +44 +46 опасность
перегрева
1009.1 1007.2
12 13.10 В 1 7000 м слабый ливневой дождь, в посл. час гроза 9/4 500 м
[Cb cap Ac lent Cs]
+26.5 +25.0 91 +38 +38 очень
душно
1011.5 1009.6 +31.8 0.4
15 13.10 В 2 10 км зарница {дождь} 9/4 500 м
[Cb cap Ac lent Ci sp]
+25.9 +24.1 90 +36 +36 очень
душно
1013.1 1011.2
18 13.10 С 3 10 км зарница {дождь} 9/4 500 м
[Cb cap Ac lent Ci sp]
+24.7 +23.2 91 +33 +33 очень
душно
1012.9 1011.0 0.0
21 13.10 С 2 10 км зарница 9/3 500 м
[Cb cap Ac lent Ci sp]
+24.1 +22.9 93 +32 +32 очень
душно
1012.1 1010.2
00 14.10 С 2 10 км в посл. час дождь 9/3 500 м
[Cb cap Ac As Ci sp]
+24.3 +23.2 94 +33 +33 очень
душно
1013.0 1011.1 +23.8 0.6
03 14.10 СЗ 2 10 км мгла 9/3 540 м
[Cu med, cong Ac As Ci sp]
+27.1 +23.7 82 +37 +43 очень
душно
1014.5 1012.6
06 14.10 СЗ 3 12 км мгла 9/3 540 м
[Cu hum Ac lent Ci sp]
+29.6 +23.4 69 +40 +47 очень
душно
1011.4 1009.5
09 14.10 З 2 10 км мгла 9/3 500 м
[Cb cap Ac lent Ci sp]
+30.6 +23.3 65 +41 +44 опасность
перегрева
1009.7 1007.8
12 14.10 ЮВ 1 10 км зарница 9/3 500 м
[Cb cap Ac lent Ci sp]
+27.4 +25.0 87 +39 +39 очень
душно
1011.7 1009.8 +31.2
15 14.10 ЮВ 1 10 км зарница 9/4 500 м
[Cb cap Ac lent Ci sp]
+27.0 +24.5 86 +38 +38 очень
душно
1013.7 1011.8
18 14.10 СВ 2 10 км гроза без осадков {дождь} 9/4 500 м
[Cb cap Ac lent Ci sp]
+26.3 +23.0 82 +35 +35 очень
душно
1012.1 1010.2 0.0
21 14.10 СЗ 1 8000 м слабый дождь {гроза} 10/4 240 м
[Frnb Ac lent Cs]
+25.0 +24.1 95 +34 +34 очень
душно
1010.6 1008.7
00 15.10 С 1 10 км мгла {гроза, дождь} 9/3 500 м
[Cb cap Ac lent Ci sp]
+25.4 +23.7 90 +35 +35 очень
душно
1011.7 1009.8 +24.3 1
03 15.10 СВ 1 10 км мгла 9/4 540 м
[Cu med, cong Ac lent Ci sp]
+29.7 +24.2 72 +41 +48 опасность
перегрева
1012.6 1010.7
06 15.10 ЮЗ 3 8000 м слабый ливневой дождь 9/4 300 м
[Cb cap Ac lent Cs]
+29.8 +25.5 78 +44 +50 опасность
перегрева
1010.5 1008.6 0.6
09 15.10 штиль 0 10 км мгла {ливн. осадки} 9/1 500 м
[Cb cap Ac lent Ci sp]
+30.0 +25.4 76 +44 +48 опасность
перегрева
1008.5 1006.6
12 15.10 С 1 10 км мгла 9/1 900 м
[Sc diur, vesp Ac lent Ci sp]
+27.1 +23.8 82 +37 +37 очень
душно
1010.7 1008.8 +31.3 0.0
15 15.10 С 2 10 км зарница 9/3 500 м
[Cb cap Ac lent Ci sp]
+26.6 +23.3 82 +36 +36 очень
душно
1012.7 1010.8
18 15.10 З 2 7000 м гроза без осадков 9/4 500 м
[Cb cap Ac lent Ci sp]
+25.7 +24.1 91 +36 +36 очень
душно
1011.6 1009.7
21 15.10 штиль 0 7000 м слабый дождь 9/4 840 м
[Sc Ac lent Cs]
+25.4 +24.2 93 +35 +35 очень
душно
1011.1 1009.2
00 16.10 штиль 0 8000 м мгла {гроза, дождь} 9/3 500 м
[Cb cap Ac lent Ci sp]
+25.7 +24.7 94 +36 +37 очень
душно
1012.5 1010.6 +25.3 1
03 16.10 СЗ 2 10 км мгла {дождь} 9/3 540 м
[Cu hum Ac lent Ci sp]
+28.9 +24.8 79 +41 +48 опасность
перегрева
1013.6 1011.7
06 16.10 З 3 10 км мгла {дождь} 9/4 500 м
[Cb cap Ac lent Ci sp]
+30.7 +24.2 68 +43 +49 опасность
перегрева
1010.6 1008.7 0.4
09 16.10 ЮВ 1 10 км в посл. час гроза {ливн. осадки} 9/3 500 м
[Cb cap Ac lent Ci sp]
+27.9 +24.5 82 +39 +42 очень
душно
1009.2 1007.3
12 16.10 штиль 0 10 км мгла {гроза, ливн. осадки} 9/3 900 м
[Sc Ac lent Ci sp]
+27.1 +24.9 88 +39 +39 очень
душно
1011.3 1009.4 +32.1 0.0
15 16.10 ЮВ 3 6000 м слабый дождь 9/4 300 м
[Cb cap Ac lent Cs]
+25.8 +24.9 95 +37 +37 очень
душно
1013.7 1011.8
18 16.10 З 1 8000 м гроза, ливневой дождь 9/4 300 м
[Cb cap Ac lent Cs]
+23.6 +23.1 97 +31 +31 очень
душно
1012.6 1010.7 52
21 16.10 С 2 8000 м зарница {гроза} 9/4 180 м
[Cb cap Ac lent Ci sp]
+23.7 +23.2 97 +32 +32 очень
душно
1011.2 1009.3
00 17.10 С 1 10 км мгла {гроза} 9/1 500 м
[Cb cap Ac lent Ci sp]
+24.3 +23.2 94 +33 +33 очень
душно
1012.6 1010.7 +23.5 58
03 17.10 СЗ 3 10 км мгла 9/4 500 м
[Cb calv Ac lent Ci fib]
+28.9 +24.5 77 +41 +45 опасность
перегрева
1013.7 1011.8
06 17.10 СЗ 3 10 км мгла 9/4 540 м
[Cu Sc Ac lent Ci sp]
+31.2 +24.5 68 +44 +50 опасность
перегрева
1010.4 1008.5
09 17.10 З 4 10 км мгла 9/4 500 м
[Cb cap Ac lent Ci sp]
+31.1 +23.8 65 +42 +44 опасность
перегрева
1007.5 1005.6
12 17.10 СЗ 2 10 км зарница 9/3 500 м
[Cb cap Ac lent Ci sp]
+28.2 +23.4 75 +38 +38 очень
душно
1009.8 1007.9 +32.3
15 17.10 СЗ 2 10 км мгла 9/1 900 м
[Sc Ac lent Ci sp]
+26.8 +23.5 82 +36 +36 очень
душно
1011.9 1010.0
18 17.10 СЗ 1 10 км зарница 9/1 500 м
[Cb cap Ac lent Ci sp]
+26.0 +24.0 89 +36 +36 очень
душно
1010.8 1008.9
21 17.10 штиль 0 10 км мгла 9/3 900 м
[Sc Ac lent Ci sp]
+25.4 +24.0 92 +35 +35 очень
душно
1009.7 1007.8
00 18.10 ЮВ 3 10 км мгла 9/4 500 м
[Cb cap Ac lent Ci sp]
+25.8 +23.7 88 +35 +35 очень
душно
1011.7 1009.8 +24.4

 

Местоположение метеостанции Kuala Lumpur Int Airport (Малайзия): широта 2.72 долгота 101.70 высота над уровнем моря 17 м.

В архиве по умолчанию представлена погода в Kuala Lumpur Int Airport за последнюю неделю. Архивные данные за месяц целиком и за предыдущие месяцы, начиная с января 2011 года, Вы можете получить, выбрав интересующий диапазон дат из раскрывающегося списка и нажав кнопку "Ввод!".


*Определитесь, кто Вы:
робот инопланетянин человек

Внимание! Время в таблицах - всемирное. Для получения местного времени необходимо прибавить поправку, которая в Kuala Lumpur Int Airport равна 7 ч.

Смотрите также архив погоды в соседних городах и на ближайших метеорологических станциях:

Погода в Kuala Lumpur (Малайзия) (48 км)
Погода в Malacca (Малайзия) (79 км)
Погода в Cameron Highlands (Малайзия) (198 км)
Погода в Sitiawan (Малайзия) (200 км)
Погода в Kuantan (Малайзия) (205 км)
Погода в Ipoh (Малайзия) (216 км)
Погода в Johore Bharu / Senai (Малайзия) (250 км)
Погода в Pekanbaru (Индонезия) (252 км)
Погода в Singapore (Сингапур) (295 км)
Погода в Batam Hang Nadim Airport (Индонезия) (322 км)

Пояснения к столбцам:

Ветер - указаны скорость ветра в м/с - средняя за 10 мин, порывы в срок и между сроками (в фигурных скобках) и направление, откуда дует ветер: С - северный, СВ - северо-восточный, В - восточный, ЮВ - юго-восточный, Ю - южный, ЮЗ - юго-западный, З - западный, СЗ - северо-западный.
Видимость - горизонтальная дальность видимости в метрах или километрах. При видимости от 1 до 10 км при отсутствии осадков обычно наблюдается дымка, при ухудшении видимости до 1 км и менее - туман. В сухую погоду видимость может ухудшаться дымом, пылью или мглою.
Явления - указаны атмосферные явления, наблюдавшиеся в срок или в последний час перед сроком; фигурными скобками обозначены явления, наблюдавшиеся между сроками (за 1-3 часа до срока); квадратными скобками обозначены град или гололедные отложения с указанием их диаметра в мм.
Облачность - указаны через наклонную черту общая и нижняя облачность в баллах и высота нижней границы облаков в метрах; квадратными скобками обозначены формы облаков: Ci - перистые, Cs - перисто-слоистые, Cc - перисто-кучевые, Ac - высококучевые, As - высокослоистые, Sc - слоисто-кучевые, Ns - слоисто-дождевые, Cu - кучевые, Cb - кучево-дождевые. Подробнее классификацию облаков см. в Атласе облаков (PDF).
T - Температура воздуха - температура, измеренная на высоте 2 м над землей.
Td - Температура точки росы - температура, при понижении до которой содержащийся в воздухе водяной пар достигнет насыщения.
f - Относительная влажность воздуха - влажноcть воздуха, измеренная на высоте 2 м над землей.
Te - Эффективная температура - температура, которую ощущает одетый по сезону человек в тени. Характеристика душности погоды. При расчете учитывается влияние влажности воздуха и скорости ветра на теплоощущения человека.
Tes - Эффективная температура на солнце - температура, которую ощущает человек, с поправкой на солнечный нагрев. Характеристика знойности погоды. Зависит от высоты солнца над горизонтом, облачности и скорости ветра. Ночью, в пасмурную погоду, а также при ветре 12 м/с и более поправка равна нулю.
P - Атмосферное давление - приведенное к уровню моря атмосферное давление.
Po - Атмосферное давление - измеренное на уровне метеостанции атмосферное давление.
Tmin - Минимальная температура - минимум температуры воздуха на высоте 2 м над землей.
Tmax - Максимальная температура - максимум температуры воздуха на высоте 2 м над землей.
R - Количество осадков - Количество выпавших осадков за период времени, мм. При наведении курсора мыши на число - период времени, за который выпало указанное количество осадков.
R24 - Количество осадков - Количество выпавших осадков за 24 часа, мм.
S - Снежный покров - Высота снежного покрова, см. При наведении курсора мыши на число - состояние снежного покрова и степень покрытия местности в баллах.